Theta_e
334 333 333 334 335 333 334 335 334 333 334 335 334 332 332 331 330 331 331 329 328 327 328 328 328 327 327 328 329 329 331 333 334 335 334 334 334 331 327 327 328 330 331 331 331 330 329 328 327 327 322 318 319 322 323 323 324 324 324 326 327 327 327 326 322 318 316 314 311 306 303 301 300 299 299 300 302 304 309 313 316 317 317 317 317
335 335 336 335 334 334 335 336 334 335 336 336 333 332 332 331 330 330 330 328 326 326 326 327 326 327 327 327 328 328 330 332 333 334 334 333 334 332 329 327 327 328 330 331 332 331 329 329 327 327 325 321 318 320 320 321 322 324 324 324 326 327 327 327 324 320 318 316 313 308 304 302 300 299 299 299 300 301 304 307 311 313 315 316 316
336 336 337 336 335 336 336 335 335 336 337 337 334 333 332 331 331 330 329 329 327 325 325 326 326 326 326 326 326 327 329 330 331 332 333 332 333 333 331 328 327 327 327 329 331 332 330 329 329 327 327 325 323 322 320 318 320 323 324 322 324 327 327 327 326 322 320 318 315 312 307 303 301 299 298 299 300 301 302 303 306 308 311 314 316
337 336 336 336 336 335 336 335 336 336 336 336 336 334 331 332 331 329 330 330 327 326 325 325 326 326 325 325 326 326 328 329 330 330 331 331 331 332 332 330 328 327 327 327 329 332 331 331 330 328 328 327 326 326 321 319 319 321 324 323 322 326 326 326 326 323 321 319 317 315 310 305 302 300 299 298 299 301 303 303 304 305 307 311 314
337 336 336 335 336 335 335 335 336 336 336 336 336 334 331 332 331 327 329 329 328 326 325 326 325 326 327 325 325 326 327 329 329 330 330 330 330 330 332 332 330 329 327 326 327 329 330 331 331 329 329 328 328 328 323 320 318 318 324 324 321 324 326 326 326 325 323 320 319 317 314 310 304 301 300 298 299 300 303 304 304 304 305 307 311
336 336 336 335 335 335 334 335 336 336 337 336 336 335 332 332 330 328 327 326 326 324 322 326 325 325 327 326 326 326 327 329 328 330 330 330 329 329 331 332 332 331 329 327 326 327 328 329 330 329 330 329 328 329 326 323 319 315 321 325 322 322 325 325 326 326 324 323 321 318 316 314 309 304 301 299 299 299 300 302 303 303 302 304 306
336 336 336 335 334 335 334 335 336 336 336 336 336 336 333 331 330 329 327 325 327 323 320 323 325 325 327 328 327 327 326 327 327 328 329 329 329 329 329 330 332 333 333 331 328 326 326 327 328 328 330 330 329 329 327 326 324 318 317 321 322 321 323 325 325 326 327 325 323 320 318 316 313 309 304 300 299 298 299 299 301 301 300 301 303
336 335 335 334 334 334 333 334 335 335 335 335 336 335 333 331 330 329 329 327 327 326 323 324 326 327 330 330 329 329 328 327 327 327 328 329 328 329 329 329 330 331 333 333 332 329 327 326 326 326 328 329 329 329 329 328 327 325 322 322 321 317 318 322 325 326 327 326 324 322 321 318 316 313 308 304 301 298 298 297 299 299 299 300 302
334 335 334 334 334 334 333 334 334 333 334 335 334 334 333 332 331 330 330 330 329 328 327 326 325 327 329 330 331 331 330 328 328 327 327 327 328 328 329 330 329 330 331 333 333 333 330 327 326 326 326 327 328 329 329 328 328 328 327 326 323 320 317 317 322 327 327 326 325 325 323 320 318 316 313 309 304 300 298 297 297 297 298 300 301
332 333 334 333 333 334 333 333 333 332 333 333 332 334 333 332 332 331 331 331 330 329 329 328 327 327 325 326 328 330 331 330 329 328 328 327 327 328 328 329 329 330 331 331 332 333 333 331 329 327 326 326 326 327 327 329 329 329 328 328 327 327 323 315 316 323 326 327 327 326 325 323 320 319 316 313 308 303 299 297 297 297 297 298 300
330 330 331 331 331 332 332 333 332 331 332 332 332 333 333 332 332 331 330 330 330 331 331 330 331 330 327 326 327 328 331 331 330 329 328 328 327 328 327 328 329 329 330 331 331 332 333 333 331 330 328 326 326 326 326 327 329 330 330 329 328 328 328 321 317 319 322 325 327 327 325 324 323 321 319 315 312 307 303 299 297 297 297 297 298
327 328 327 327 328 329 330 331 330 330 330 330 331 331 332 332 331 331 331 330 330 331 332 333 333 332 330 329 328 328 330 330 330 329 328 328 327 327 327 327 328 329 330 331 331 331 333 334 333 333 332 330 328 327 326 326 327 328 330 330 330 329 329 328 326 323 321 321 324 327 327 325 324 324 322 318 315 310 305 302 298 297 297 296 296
325 326 326 325 325 325 327 329 329 330 330 330 331 331 331 331 331 331 331 330 330 331 333 334 334 332 330 330 329 329 329 329 329 330 329 328 328 327 328 327 327 328 329 330 330 331 331 332 333 333 333 333 331 329 328 327 327 327 328 330 330 331 330 328 328 328 326 321 320 323 326 327 325 325 324 321 318 313 309 305 301 298 297 297 297
324 325 325 324 324 324 325 327 327 328 330 331 331 331 330 330 331 331 331 330 330 332 332 332 332 333 332 331 332 331 328 327 327 329 328 328 328 328 327 328 328 328 328 329 329 329 329 331 331 332 332 332 332 331 329 329 328 327 327 328 329 330 330 330 329 329 328 326 322 319 322 325 326 326 326 324 321 317 313 308 303 300 298 296 297
323 324 324 323 323 322 323 325 326 327 328 330 330 329 329 330 330 330 330 329 331 332 331 330 331 332 333 332 333 333 332 330 328 329 329 328 328 328 329 328 328 328 328 328 328 328 328 328 329 330 330 331 332 332 331 330 329 329 327 327 327 327 328 330 330 330 329 328 327 324 321 322 323 324 326 326 323 320 317 313 307 303 300 297 297
323 323 322 322 322 321 321 323 323 324 325 326 328 328 329 330 329 329 329 329 331 331 331 331 330 331 332 332 333 334 334 334 332 331 331 330 328 328 329 329 329 328 328 327 327 328 328 328 328 329 330 331 331 331 332 331 330 330 329 328 327 327 326 327 328 330 330 329 329 328 326 325 323 323 323 326 325 322 320 318 313 308 302 298 298
323 322 321 321 321 321 321 321 321 322 322 323 324 325 325 327 328 329 328 329 329 329 329 330 330 330 331 332 333 333 334 334 333 334 333 331 330 330 330 329 329 329 329 328 328 328 329 329 329 330 331 331 332 332 332 332 331 331 330 329 329 328 328 327 326 327 329 330 330 328 328 327 326 324 322 323 325 324 322 320 318 314 308 300 299
323 322 321 321 321 321 320 320 320 321 321 322 321 321 321 322 324 326 328 329 329 327 327 328 329 328 328 330 330 331 333 333 334 335 333 331 331 332 331 330 329 329 330 330 330 330 330 330 330 332 332 333 333 333 332 331 331 331 331 331 331 330 330 329 328 326 327 329 330 330 329 328 328 327 324 322 323 324 323 321 320 318 314 306 300
323 322 322 322 321 321 321 321 320 320 321 321 320 321 321 321 322 323 324 325 327 327 326 327 328 327 326 327 327 327 328 331 332 334 334 333 331 329 330 330 330 329 329 330 331 329 329 330 331 331 332 332 333 332 332 331 330 330 331 331 331 330 330 330 330 329 327 327 328 330 330 329 329 328 327 324 322 323 323 322 321 319 318 314 305
322 322 322 321 321 321 320 319 318 317 317 318 318 319 320 320 321 322 322 322 323 325 325 325 326 326 326 327 327 325 325 328 329 329 330 332 332 330 329 329 329 329 329 329 330 329 328 330 331 331 331 331 333 332 332 331 331 330 330 330 331 330 330 329 329 330 329 328 327 328 330 330 330 330 329 327 324 323 322 322 323 321 320 318 313
321 320 319 319 319 318 317 316 316 315 314 314 315 316 318 319 319 320 321 321 321 322 323 322 322 323 324 325 326 325 325 327 328 326 326 328 330 331 330 328 328 327 328 328 330 329 330 330 331 330 330 330 331 332 332 331 331 332 331 332 332 332 331 329 329 328 328 328 328 328 329 330 331 331 330 329 327 325 323 322 323 323 321 319 317
319 317 317 318 317 317 316 315 315 315 315 315 315 316 317 317 318 318 319 319 319 320 321 321 320 320 321 322 322 323 325 326 326 325 325 326 327 329 328 329 330 327 325 325 327 328 328 329 329 328 329 330 330 330 330 330 332 332 332 332 333 333 332 330 328 327 326 327 327 328 328 330 331 331 331 330 329 327 325 323 323 324 323 321 319
317 317 317 317 317 317 316 315 315 315 316 317 316 317 317 317 317 317 317 317 317 318 318 318 318 318 318 320 320 320 321 322 322 322 322 323 324 326 326 327 329 327 324 322 321 323 323 325 327 326 327 329 329 330 330 330 331 332 332 332 332 332 332 331 328 326 326 326 326 327 327 328 329 330 331 331 330 329 327 325 325 324 323 322 320
317 317 318 318 318 317 317 316 316 316 316 316 316 317 317 317 317 317 317 317 317 317 317 317 317 316 315 316 317 318 318 319 320 320 320 320 321 321 320 320 321 322 323 323 323 324 324 325 326 326 327 327 328 329 330 330 330 330 330 331 331 331 330 330 328 327 326 326 325 326 327 327 327 328 330 331 330 330 329 327 326 325 324 324 322
317 317 318 318 319 318 318 318 316 316 315 316 316 317 317 317 317 317 316 317 316 316 316 316 316 316 316 315 315 316 316 316 316 316 316 317 318 318 318 317 317 318 318 320 322 322 322 323 322 323 325 326 326 327 329 329 330 330 329 330 330 329 328 328 327 326 326 326 325 325 326 326 327 327 329 330 331 330 330 329 328 326 325 324 323
318 318 318 318 319 318 319 318 317 316 316 316 316 316 317 316 316 317 317 316 317 316 316 316 316 316 316 315 314 315 315 314 315 315 315 315 315 315 316 316 316 316 316 316 316 317 318 320 320 320 322 322 323 325 327 328 329 328 328 328 327 328 327 327 327 327 327 326 326 325 326 326 327 327 327 328 329 330 330 330 329 328 327 325 324
319 319 319 318 319 319 319 318 317 316 316 316 316 316 316 316 315 316 317 316 316 316 315 315 315 315 315 315 314 314 314 314 314 314 314 315 314 314 314 314 314 315 316 316 315 315 316 317 318 319 319 320 321 322 325 326 327 326 325 325 325 327 327 327 327 327 327 326 326 326 325 325 325 326 326 327 328 329 330 329 329 329 328 327 325
319 319 320 319 319 319 319 319 318 317 316 316 316 316 315 316 316 316 316 315 315 316 316 316 315 315 315 314 315 314 312 313 313 313 314 314 314 314 314 314 314 314 314 315 315 316 317 316 317 318 318 318 319 321 324 324 324 325 324 324 325 326 327 327 327 327 327 327 326 326 326 326 325 325 326 326 326 327 328 329 329 329 329 328 327
319 320 320 318 319 320 319 319 318 317 316 316 316 316 315 316 316 316 316 315 316 316 316 316 315 315 315 314 315 314 312 312 313 312 313 313 313 314 314 314 314 313 313 313 314 315 316 316 316 316 316 317 317 320 323 323 323 323 322 322 323 325 325 325 325 326 326 326 326 326 326 326 326 326 325 325 325 326 327 328 328 328 329 329 328
319 320 321 319 320 320 319 319 319 318 316 315 315 315 315 315 316 316 316 315 315 315 315 315 315 315 314 313 314 314 312 312 312 312 312 313 313 313 313 314 314 314 314 314 314 314 314 314 315 315 316 316 317 318 319 320 320 320 320 320 321 322 322 322 322 323 324 324 325 325 326 326 326 326 326 326 326 325 325 326 326 327 328 328 328
319 321 321 319 320 320 319 319 319 318 317 316 316 315 315 315 315 315 315 314 315 315 315 315 314 314 314 313 313 313 312 311 312 313 313 312 312 312 311 312 313 314 315 314 314 314 313 314 314 314 314 314 314 314 315 316 317 316 317 317 318 318 319 319 319 320 319 319 320 322 322 324 325 325 326 326 325 325 325 325 325 326 326 327 328
320 321 321 319 320 320 319 319 320 319 317 316 316 315 315 315 314 315 314 314 315 315 314 314 313 313 314 312 312 312 311 310 310 312 311 311 312 311 311 311 311 312 313 314 313 314 313 313 313 313 313 313 313 313 314 314 315 315 315 316 317 317 317 317 317 316 316 316 319 321 320 321 323 325 325 325 325 325 325 325 325 325 325 326 326
320 321 321 319 320 320 320 320 320 319 318 316 316 315 315 316 315 315 315 314 314 314 314 314 312 312 312 312 311 311 310 310 310 310 310 310 311 311 311 311 311 311 312 312 313 313 313 312 313 313 313 313 313 313 313 313 314 314 315 315 316 316 317 317 316 315 315 316 318 320 321 321 322 324 324 325 325 325 325 325 325 325 325 325 325
321 321 321 320 320 320 320 320 320 320 318 317 316 315 315 315 315 316 315 314 313 314 314 313 312 312 312 310 310 311 310 310 309 309 309 309 309 309 310 310 310 311 310 311 311 312 312 311 311 311 312 312 313 312 312 312 313 313 313 313 313 313 314 314 315 314 314 315 317 320 322 323 322 322 323 324 325 324 324 325 325 325 324 325 325
323 322 321 320 320 320 320 320 320 320 319 318 317 316 315 315 315 315 315 314 313 314 313 313 312 312 311 311 311 311 310 310 310 309 309 309 309 309 309 309 309 310 310 310 311 311 311 311 311 311 311 311 312 312 312 311 312 312 312 312 311 311 312 312 312 313 313 314 315 317 319 320 320 320 320 321 322 323 323 324 324 324 324 325 325
323 323 322 320 320 321 320 320 321 320 319 319 318 317 315 315 315 315 315 313 313 313 313 312 311 311 311 311 311 310 310 309 309 309 309 309 309 308 308 308 308 309 310 310 311 311 312 311 311 311 310 311 311 311 311 310 311 311 311 311 311 311 311 311 312 313 313 313 314 315 316 318 320 320 319 319 320 321 322 323 323 324 324 324 325
324 323 323 321 320 321 321 321 320 320 320 319 318 317 316 315 315 315 314 314 313 313 313 312 311 311 310 310 310 309 309 308 308 309 309 308 308 307 307 307 307 307 308 308 309 310 311 311 311 310 310 310 310 310 311 311 310 311 310 310 311 311 311 311 312 311 312 312 312 313 314 314 316 316 316 316 317 318 320 321 323 324 324 324 324
323 323 323 322 321 321 321 321 321 320 320 319 318 317 316 315 315 315 314 314 313 313 312 311 310 310 310 310 309 308 308 307 307 308 307 307 307 307 307 307 307 307 307 307 308 308 308 309 309 309 310 310 310 311 311 310 310 311 310 310 310 310 311 311 312 313 314 314 314 314 314 314 315 316 316 317 317 318 319 320 321 322 323 323 324
323 323 323 323 322 322 322 321 321 321 320 319 318 317 317 316 315 315 315 314 313 312 311 311 310 310 309 308 308 307 307 306 306 306 306 306 306 306 306 307 307 307 307 308 308 308 308 308 308 309 309 309 309 310 309 310 310 310 310 310 310 311 311 312 313 315 315 315 315 315 316 316 317 319 319 319 319 320 319 319 321 322 323 323 323
324 323 323 323 322 322 322 321 321 321 320 319 318 317 317 316 315 315 314 314 313 312 311 310 309 309 308 307 306 306 305 305 305 304 302 301 301 302 302 303 304 305 305 306 306 307 307 308 307 308 308 308 308 308 309 309 309 310 310 311 312 312 312 312 311 311 311 311 311 312 313 314 315 316 318 318 318 318 317 317 317 317 319 322 323
323 323 323 323 322 322 322 321 321 321 320 319 318 318 317 316 316 315 314 313 312 312 311 310 309 308 307 305 305 305 304 303 302 300 297 295 295 296 297 299 300 302 303 304 304 305 306 307 307 307 307 308 308 308 308 309 309 309 310 310 311 311 310 310 310 310 309 310 310 311 312 312 314 315 317 318 319 319 318 317 315 314 315 318 321
322 322 322 322 322 323 322 321 321 321 319 318 318 317 317 316 315 314 314 313 312 311 311 309 308 307 306 305 305 304 303 301 300 299 298 297 297 296 296 297 298 299 301 302 303 304 305 305 305 306 306 307 307 307 308 308 308 309 309 309 309 309 309 310 310 310 310 310 310 311 312 313 314 315 316 317 318 319 320 320 319 317 317 317 319
321 321 322 322 322 322 322 321 320 320 318 318 318 317 316 315 314 314 313 312 311 310 309 307 306 306 305 305 304 304 302 302 301 301 301 300 299 298 297 297 297 297 298 299 300 301 303 303 304 304 305 305 306 306 307 307 307 307 308 308 308 308 309 309 310 310 310 309 310 311 312 313 314 315 315 316 317 318 320 321 321 320 320 320 320
320 320 320 321 321 321 321 320 320 319 318 317 317 316 315 313 313 313 312 310 309 308 306 306 305 305 304 304 304 303 302 302 302 301 301 300 299 299 299 299 299 298 298 297 298 298 299 301 302 302 303 304 305 305 306 307 307 307 307 308 308 308 308 308 309 309 309 309 309 309 310 310 312 313 313 315 316 317 319 320 320 320 321 320 320
319 319 319 320 320 320 320 320 320 318 318 317 317 315 313 312 311 311 310 308 307 306 305 305 304 304 303 303 303 302 302 301 301 301 301 302 302 302 301 301 301 300 300 299 298 298 298 299 299 300 301 302 303 303 304 305 305 306 307 307 307 306 306 306 307 307 307 308 308 309 309 309 310 311 311 312 314 316 316 317 318 318 320 320 320
317 317 318 319 319 319 319 320 319 319 318 317 316 314 312 310 310 309 308 306 305 305 304 304 304 303 303 303 302 301 301 301 301 301 302 302 302 302 302 302 302 301 301 301 301 300 299 299 299 299 300 300 301 301 302 302 303 304 304 305 305 305 305 305 305 306 306 306 306 307 307 308 308 309 310 310 311 313 314 315 316 317 318 318 318
315 316 316 317 318 318 318 319 319 318 317 316 315 313 311 309 308 307 305 304 303 303 303 303 303 303 302 302 301 301 301 301 301 301 301 301 301 301 301 300 300 301 301 301 301 301 300 300 299 300 300 300 300 301 301 301 301 301 301 302 302 302 303 303 304 304 304 304 304 305 306 306 307 307 308 309 309 311 312 312 313 315 317 318 318
314 315 315 316 317 317 318 319 318 316 314 313 312 311 310 308 306 305 303 303 303 303 303 303 303 302 302 301 301 301 301 301 301 300 299 299 299 299 299 299 299 299 300 300 300 300 300 300 299 300 300 300 300 300 300 299 299 298 298 299 299 300 301 302 302 302 303 303 303 304 304 305 306 306 307 307 308 309 310 311 312 315 316 317 318
313 314 314 315 316 316 316 317 315 313 311 309 309 309 308 306 303 302 303 303 303 302 303 302 302 301 301 301 300 301 301 300 299 299 298 298 298 298 298 298 298 298 299 299 299 299 298 298 298 298 298 297 297 297 297 297 297 296 296 297 298 299 300 301 301 301 302 303 303 304 304 305 305 306 306 307 308 309 309 311 315 317 318 317 317
313 313 313 313 314 315 315 315 313 310 307 306 306 305 303 301 301 301 302 303 302 302 302 301 301 300 300 300 300 299 299 299 298 298 298 297 297 296 297 297 297 297 297 298 298 298 298 298 297 297 297 296 296 296 296 296 296 295 295 296 297 298 299 299 300 300 301 301 302 303 303 304 305 305 306 307 308 309 309 311 314 316 317 316 315
313 313 312 312 314 314 313 311 309 308 305 302 300 300 298 298 299 300 300 300 300 299 299 299 299 299 299 299 298 298 298 298 298 298 297 295 295 295 296 296 296 296 296 296 296 297 297 297 297 297 297 297 297 297 296 296 296 296 295 296 296 297 298 298 299 299 299 300 301 302 303 304 305 305 306 307 308 308 309 311 312 314 315 314 312
Wind_Speed
12 12 12 13 12 11 9 8 8 8 9 9 7 7 8 8 7 7 7 7 8 9 10 10 11 9 8 9 8 8 9 8 7 6 6 6 6 5 3 4 7 9 9 8 7 6 7 6 5 5 4 4 6 7 6 7 6 6 6 5 5 4 2 0 1 2 5 6 6 7 8 8 8 8 8 8 8 8 7 7 8 9 10 10 11
10 9 7 9 8 7 8 7 7 7 7 7 9 8 7 8 7 8 7 7 8 8 9 10 12 11 10 10 10 9 9 8 8 8 7 7 7 7 4 3 6 8 9 10 9 7 7 6 6 6 5 4 4 5 6 7 7 6 6 6 6 6 3 2 1 1 3 4 5 6 7 8 7 7 7 7 7 7 7 6 6 7 8 9 10
7 6 6 5 6 6 7 7 7 7 6 6 9 9 8 8 8 8 6 7 9 8 8 10 12 13 12 11 11 10 9 9 9 9 9 8 9 8 6 5 6 7 8 9 11 9 7 6 7 7 6 5 4 4 5 6 7 7 6 6 7 7 5 3 3 1 1 3 3 4 6 7 7 6 6 6 6 6 7 7 6 6 7 8 9
6 7 7 6 7 7 7 7 8 7 6 7 9 10 9 8 7 8 5 4 8 8 7 9 12 13 13 13 11 10 10 9 9 10 10 9 9 9 8 7 7 7 7 8 10 11 9 7 7 7 7 6 5 5 4 6 7 8 7 6 7 8 6 5 4 2 1 0 2 3 4 5 6 6 5 5 5 5 6 6 6 6 6 7 8
7 8 8 8 8 9 9 8 8 7 8 10 10 10 11 9 8 8 6 4 8 11 10 9 11 13 13 12 12 12 11 11 11 10 10 9 8 9 10 9 8 8 8 8 9 11 11 10 9 7 7 7 6 6 5 6 7 7 9 7 7 9 8 6 5 3 2 1 1 1 3 4 4 5 5 4 4 4 4 5 5 5 6 6 7
6 7 8 9 8 10 10 8 8 8 9 10 10 10 11 11 9 8 8 7 9 14 14 11 11 12 12 11 11 12 12 11 12 11 10 9 9 9 10 10 10 10 9 9 9 10 11 11 11 9 9 8 7 8 7 7 6 6 9 8 7 10 10 8 6 4 2 2 2 1 1 2 3 3 4 4 4 3 3 3 3 4 4 5 6
5 6 7 8 9 10 9 8 7 7 7 9 8 9 11 12 12 9 8 9 10 12 14 13 11 10 10 11 11 10 11 12 12 12 11 11 10 9 9 9 10 11 11 11 11 11 11 12 11 10 10 10 9 9 8 8 7 6 7 8 7 9 11 10 7 6 5 3 3 4 2 1 2 2 3 3 3 3 3 3 3 3 3 4 5
5 7 7 8 10 10 9 8 7 6 7 7 6 9 12 13 13 11 9 11 12 11 12 12 10 9 9 11 11 10 10 11 11 12 12 12 12 11 10 9 10 10 11 12 12 12 12 12 12 11 12 12 11 10 10 9 9 7 6 6 6 7 10 12 9 8 8 6 4 5 4 3 2 1 1 2 2 3 3 3 3 3 3 3 4
4 5 6 8 10 9 9 9 9 9 8 6 7 10 13 13 13 13 11 11 12 11 11 11 10 9 8 10 10 10 10 11 11 12 12 12 12 12 11 11 11 10 10 11 13 13 12 12 12 12 12 12 12 12 11 10 10 9 8 7 6 5 7 11 11 8 8 8 6 6 6 5 3 1 1 1 1 2 3 4 4 4 3 3 3
3 3 4 7 8 7 7 8 8 8 7 7 9 10 11 12 13 14 12 12 14 12 11 11 10 9 8 9 10 10 10 11 11 12 12 12 12 12 12 11 11 11 11 11 11 13 13 12 11 12 13 13 13 13 12 12 12 11 10 9 8 7 6 8 11 10 9 9 8 8 7 6 5 3 3 2 2 2 3 4 4 4 4 4 4
2 3 4 6 6 6 6 6 7 6 6 8 8 8 9 12 13 13 12 14 17 14 9 10 9 7 5 7 9 9 9 10 10 11 12 12 12 12 12 12 11 11 11 11 11 11 13 13 12 13 15 15 15 14 14 13 13 14 12 10 10 10 7 5 8 10 10 11 10 10 9 9 7 5 5 4 4 3 3 4 4 5 5 4 5
2 3 3 5 5 5 4 4 6 5 5 7 8 7 9 11 12 12 11 12 16 14 7 8 7 5 4 7 9 9 9 8 8 9 11 12 12 12 13 12 12 11 11 11 12 11 12 12 13 15 15 16 15 14 15 15 14 14 14 13 11 11 11 7 7 9 10 11 12 12 11 11 9 7 7 6 6 5 4 4 5 5 5 5 5
3 3 2 3 4 5 4 4 4 3 5 5 6 7 8 9 9 10 12 12 13 14 7 6 6 5 5 8 11 12 14 14 10 9 11 11 12 12 12 11 11 11 11 12 12 12 12 12 13 14 15 16 16 15 14 15 16 15 16 16 14 14 14 11 9 10 10 9 11 13 14 13 11 9 9 8 7 7 7 6 6 6 6 6 6
2 2 2 2 3 4 3 4 3 1 1 2 4 5 5 7 7 8 12 13 13 14 10 7 6 5 4 4 7 9 13 17 16 13 13 12 11 11 12 12 11 11 11 11 12 12 13 13 13 13 13 13 15 16 16 16 17 17 17 18 18 17 16 13 12 13 12 10 10 12 14 15 14 12 11 10 9 9 9 8 7 7 7 7 7
1 1 1 1 2 2 3 3 4 4 4 3 2 1 1 3 6 7 10 12 13 12 12 10 7 3 2 2 2 2 5 10 14 13 12 11 11 10 10 11 12 12 12 11 12 13 13 13 13 12 12 12 12 14 16 17 17 17 17 19 20 19 19 17 16 15 15 14 12 12 13 14 15 14 13 13 12 10 10 10 10 9 9 8 8
1 1 2 2 2 2 3 3 4 4 4 3 4 4 3 2 1 4 6 8 9 8 9 9 8 5 2 2 1 1 1 2 5 6 5 7 10 10 12 11 10 10 12 12 11 11 12 12 12 11 12 12 12 12 13 15 16 16 16 17 19 20 20 20 19 17 16 17 16 14 14 14 14 14 15 15 14 12 11 11 11 11 10 10 10
3 3 3 2 2 2 2 3 3 3 4 3 3 4 3 3 3 2 1 2 4 3 4 4 7 8 5 2 1 1 2 0 1 1 2 4 5 6 9 11 10 10 10 10 10 10 10 12 12 12 11 11 12 13 13 14 15 16 16 16 17 19 20 21 20 18 18 18 18 17 16 16 15 14 15 16 16 15 13 12 12 12 12 11 11
4 4 4 3 3 3 3 3 3 3 4 4 3 4 4 4 3 3 3 1 1 1 3 2 4 6 4 2 2 1 1 1 0 0 2 3 3 4 6 7 8 8 8 8 8 9 9 9 11 11 11 12 13 13 14 14 14 15 16 16 16 16 17 19 21 21 20 19 19 19 18 18 17 16 16 17 17 16 14 13 13 13 13 12 12
4 4 4 3 3 3 3 4 4 3 4 4 4 4 4 4 4 3 3 2 2 2 4 2 1 1 0 2 2 1 2 1 0 1 1 1 2 4 6 7 7 7 8 8 9 9 9 7 8 10 10 12 13 13 15 14 14 15 15 16 17 16 17 16 17 19 21 21 21 20 20 19 18 18 17 17 18 17 16 15 15 14 14 14 13
3 4 3 4 4 4 4 4 4 4 4 5 6 5 5 4 4 4 4 4 3 2 2 2 2 3 2 1 3 1 1 2 3 3 3 2 3 2 4 6 6 8 11 10 7 8 8 6 7 10 10 12 11 11 13 13 14 15 15 17 19 18 19 19 18 18 19 22 23 22 21 19 19 19 19 18 18 18 18 17 16 16 16 15 15
3 4 4 5 5 4 4 4 5 5 5 6 6 6 6 5 5 5 4 4 4 4 3 3 3 4 3 2 2 1 1 1 1 1 1 2 2 2 2 4 6 9 10 9 8 9 9 10 11 11 11 13 11 9 12 13 13 13 12 13 15 16 17 18 20 20 19 20 23 24 22 20 20 20 20 20 19 20 19 19 18 17 17 17 17
4 5 5 5 5 5 4 4 5 5 6 6 6 6 6 6 6 6 5 5 4 4 4 4 4 4 4 4 2 1 1 3 4 2 3 5 4 3 5 4 3 7 11 11 11 11 13 15 17 16 13 13 13 12 14 14 14 13 12 11 11 12 14 14 16 18 19 19 21 24 24 23 22 21 21 22 22 21 21 20 20 19 18 18 18
5 5 5 5 5 4 4 4 4 4 5 5 5 5 5 5 5 5 6 5 5 4 4 4 4 3 3 4 4 3 3 1 1 2 2 3 3 4 6 7 6 6 8 11 12 13 16 18 20 20 18 15 14 14 16 16 16 14 13 13 12 12 13 14 15 15 17 19 19 22 25 25 24 23 22 22 23 22 21 21 21 20 20 19 19
6 5 5 5 4 4 3 3 4 4 4 4 4 4 4 5 5 5 6 6 5 5 5 4 4 4 4 4 4 3 3 3 3 3 3 4 5 4 5 5 5 5 6 8 9 10 13 14 16 18 18 16 14 13 13 14 15 14 12 13 15 16 16 17 17 17 17 18 19 21 23 26 27 26 24 23 24 23 22 22 22 22 21 21 20
7 6 6 5 4 4 3 3 3 3 3 3 3 3 3 4 5 5 6 6 6 6 6 6 5 5 4 3 3 3 3 3 3 2 2 4 5 4 6 7 6 6 7 7 9 10 12 13 14 14 15 15 15 13 11 11 11 11 10 11 14 16 17 18 19 19 18 18 19 20 22 25 28 28 27 25 24 25 24 24 24 23 23 23 22
8 7 7 7 5 4 3 3 3 3 2 2 2 2 2 3 4 5 5 5 5 6 6 5 5 5 5 4 4 4 4 3 2 2 2 3 4 5 6 7 6 7 8 8 8 8 8 10 11 11 11 12 13 12 10 9 9 9 8 9 11 13 15 16 17 18 18 18 18 19 21 23 26 28 28 28 27 27 26 26 27 26 24 25 25
8 8 9 8 6 6 5 4 4 4 3 2 2 2 1 2 3 4 4 4 4 5 5 5 5 5 5 4 4 4 4 4 3 3 3 3 3 4 5 5 5 5 6 6 6 5 5 6 6 7 8 9 10 10 8 7 8 9 10 10 10 12 13 14 14 15 16 17 17 18 19 21 24 27 29 30 30 30 29 28 28 28 27 27 27
9 9 10 9 8 7 7 6 6 5 4 3 2 2 2 2 3 3 3 3 3 3 3 4 4 4 4 4 3 4 4 4 4 4 4 4 3 3 3 4 4 4 4 5 5 4 2 3 4 4 5 6 6 6 6 5 7 9 9 9 10 11 13 14 13 14 15 17 17 18 18 19 21 23 25 29 31 31 32 31 31 31 31 30 30
9 11 11 10 10 9 8 8 7 6 6 5 4 3 3 3 3 3 3 3 3 2 2 2 2 2 3 3 2 3 4 4 4 4 4 4 4 3 3 4 3 4 4 4 5 5 6 7 7 6 5 6 5 5 5 6 9 10 9 9 11 11 14 14 14 15 16 17 17 18 19 20 21 21 22 24 28 31 32 33 32 32 33 33 32
11 12 12 12 11 11 10 9 9 8 7 6 5 5 4 4 4 4 4 4 3 3 2 2 1 1 1 2 2 2 3 3 3 4 4 4 5 5 5 5 4 4 5 4 5 7 9 9 9 9 8 9 8 7 7 8 12 14 11 12 13 13 16 18 17 18 18 19 18 18 19 21 22 23 22 22 24 27 30 32 34 34 34 34 34
13 14 14 14 13 13 12 11 10 10 9 8 7 7 6 5 5 5 5 4 4 4 3 2 2 1 1 0 1 1 2 3 3 3 3 4 5 5 6 6 6 6 6 6 5 6 9 9 10 12 12 13 12 12 12 11 13 14 13 14 14 15 18 20 20 22 23 22 20 19 20 21 21 22 22 22 22 24 26 29 32 35 36 36 36
14 15 16 15 15 15 14 13 12 12 11 10 10 9 8 7 6 6 6 5 5 4 4 3 2 2 2 1 1 1 2 3 3 3 4 4 5 5 6 6 6 6 7 8 7 8 10 10 12 13 13 14 13 13 13 13 14 14 13 14 15 16 18 19 20 21 22 21 19 19 20 21 22 22 21 21 22 22 24 26 29 32 36 38 38
14 15 16 16 16 16 16 15 15 14 14 13 12 11 10 9 8 7 7 7 6 6 6 5 4 3 3 2 2 2 2 3 4 4 5 5 6 6 7 6 7 7 7 9 9 9 11 10 11 12 12 12 13 13 13 14 14 14 13 14 15 16 16 17 18 18 19 20 20 21 20 20 21 22 23 23 23 23 24 25 26 28 31 35 38
15 16 16 17 17 17 17 17 16 16 16 15 14 13 12 11 10 9 8 8 8 7 7 6 6 5 4 3 3 2 3 4 4 5 6 6 6 7 7 7 8 8 8 9 10 11 12 12 12 13 13 12 13 13 13 14 15 14 15 15 15 15 15 16 17 17 18 18 19 19 19 19 21 22 23 24 25 25 26 26 27 27 29 31 34
15 16 17 17 18 18 18 18 18 18 17 16 16 14 13 13 12 11 11 10 10 9 8 8 7 7 5 5 4 3 4 4 5 6 6 6 6 7 7 8 9 10 10 10 11 12 13 13 13 13 13 12 12 13 13 14 15 15 15 16 15 15 15 15 16 16 17 17 18 20 20 21 22 24 25 26 27 27 28 28 29 29 30 30 31
16 16 17 18 18 18 19 19 18 18 17 17 16 16 15 14 14 13 13 12 12 11 10 9 8 7 6 6 5 4 4 4 5 6 6 6 6 7 9 9 10 10 10 10 11 12 13 14 14 13 14 14 14 14 14 15 15 15 15 15 15 15 15 15 15 15 17 17 17 19 20 22 23 24 26 28 28 28 29 30 30 31 31 31 32
19 18 18 18 19 20 20 19 19 18 18 17 17 17 16 15 15 15 14 14 13 13 12 11 9 8 7 6 5 5 4 5 5 5 6 6 7 8 9 10 10 11 11 11 12 13 14 16 16 15 15 16 15 14 14 14 15 15 15 15 14 15 15 16 16 17 18 19 19 19 21 23 25 27 28 29 30 31 30 30 31 31 31 32 33
19 19 19 19 19 21 21 20 20 19 18 18 18 18 17 17 17 17 16 15 14 13 12 11 10 9 8 7 6 5 5 5 5 6 6 7 8 9 10 11 11 12 13 13 13 14 15 16 17 17 16 16 16 15 14 14 15 14 14 14 14 15 16 16 16 15 15 15 17 18 19 21 22 24 26 27 28 29 29 30 31 32 32 33 33
20 19 19 18 19 20 21 21 21 20 20 20 20 19 18 18 18 17 16 15 14 13 12 11 10 10 9 7 7 6 6 6 5 5 5 7 8 9 10 11 12 12 13 14 14 15 15 16 16 16 16 15 16 16 15 14 14 15 15 15 14 13 13 13 13 13 13 14 16 18 19 19 20 22 24 25 25 26 27 28 29 30 31 33 34
19 19 18 18 19 20 21 22 23 22 22 21 20 20 19 19 18 17 15 15 13 12 12 11 10 9 9 8 7 6 6 6 6 6 6 8 10 10 11 11 12 13 14 15 15 15 16 16 16 16 16 16 15 15 15 14 14 14 13 13 13 12 12 13 14 15 16 17 19 19 20 21 21 22 24 27 28 29 30 31 32 31 31 32 33
18 18 18 18 19 20 21 21 21 21 21 20 20 22 21 20 18 16 15 15 14 12 12 11 10 9 8 8 7 7 8 10 11 11 12 13 13 13 12 12 12 13 14 15 16 16 16 16 16 16 16 15 15 15 14 13 13 13 13 13 14 15 15 17 18 17 17 17 18 19 19 19 20 20 22 24 26 27 27 29 31 33 32 31 32
18 18 18 18 19 20 21 20 20 20 21 21 23 24 24 21 17 15 15 14 13 13 11 10 10 9 8 8 7 9 11 13 14 14 13 12 13 14 15 14 14 14 14 15 15 16 16 17 16 16 16 16 16 16 15 15 15 15 15 15 16 16 16 17 16 15 15 16 17 18 18 17 18 19 20 21 22 23 23 24 26 28 30 30 30
15 16 16 17 18 20 22 22 22 23 24 24 24 25 26 22 16 14 14 13 12 12 10 10 9 8 8 8 7 8 10 11 12 13 13 14 15 16 17 16 16 16 17 17 17 17 17 17 17 17 17 17 17 17 17 17 16 16 16 16 16 16 15 14 14 13 12 12 14 16 16 15 16 18 19 19 19 20 21 23 24 25 26 26 25
14 14 15 16 17 19 20 20 20 22 24 25 25 25 27 25 18 14 13 12 12 11 10 9 8 8 7 7 7 7 9 10 12 13 14 16 17 18 18 17 17 17 18 20 20 20 19 19 19 18 18 18 18 18 17 16 16 16 16 16 16 16 16 15 15 15 13 12 14 17 18 17 17 19 20 19 18 19 20 22 24 23 22 22 23
14 14 16 17 17 18 18 17 18 20 22 25 26 25 25 26 22 16 12 12 12 11 10 10 9 8 7 7 8 8 9 11 13 13 13 14 15 16 16 16 18 19 20 20 21 22 22 21 21 21 20 19 19 18 17 17 18 17 17 17 18 18 18 18 18 18 15 14 15 18 19 18 17 19 21 20 19 20 21 22 24 23 21 22 23
15 15 17 17 17 18 18 18 19 21 23 25 26 26 26 26 25 19 12 11 11 10 9 9 8 8 8 8 9 10 10 10 11 12 11 12 13 13 14 15 17 18 20 21 21 22 24 25 25 24 22 21 22 22 21 20 20 20 19 18 18 18 19 20 20 20 19 17 17 19 20 19 17 19 22 20 20 22 23 24 25 26 26 26 27
15 16 16 17 18 18 18 19 19 20 22 24 25 27 27 27 26 20 11 10 10 8 8 9 8 8 9 9 10 11 11 11 12 12 12 12 13 14 14 16 17 18 19 20 20 21 23 26 28 26 23 23 23 22 20 19 19 19 18 18 18 18 20 23 23 22 21 20 18 18 20 20 18 20 22 20 20 22 23 24 27 28 28 28 28
15 16 15 16 16 16 17 19 17 16 19 22 24 26 27 28 26 18 10 9 8 7 8 8 8 9 10 10 10 11 10 10 13 15 15 15 15 15 16 17 17 18 19 19 20 22 24 26 28 28 28 27 27 27 26 25 26 25 23 21 20 19 21 22 22 22 21 19 18 19 22 21 18 20 22 21 21 23 22 23 26 27 28 29 28
15 16 16 15 15 16 17 16 14 16 20 21 23 25 27 26 23 15 9 8 8 8 8 8 8 9 10 11 11 11 11 12 15 17 17 17 16 15 16 17 18 19 19 19 20 22 23 25 27 29 31 32 32 33 34 34 36 34 30 25 21 20 22 21 19 21 21 20 18 19 22 22 19 19 22 21 21 23 22 21 22 21 23 26 26
15 15 15 15 15 14 14 12 14 18 21 22 23 25 24 23 19 12 8 8 7 7 7 7 8 9 11 12 13 13 13 15 17 18 18 18 15 14 16 17 18 20 19 19 19 20 21 23 25 27 30 30 30 32 32 31 32 32 32 28 23 23 26 23 20 22 23 22 21 19 21 23 20 19 22 21 20 23 21 19 20 20 21 23 21
15 15 15 16 13 9 8 11 14 17 21 23 22 22 21 19 16 10 5 5 5 5 6 7 8 9 10 12 15 17 18 18 19 19 19 18 16 14 16 18 20 21 20 20 21 21 21 22 23 24 26 26 26 27 26 25 25 25 27 27 24 25 30 30 26 22 18 17 17 16 19 21 20 20 21 17 14 16 17 18 20 20 18 16 12
Wind_Direction
212 216 212 207 216 222 224 213 210 217 195 193 202 201 217 218 210 213 214 219 216 212 214 216 214 218 233 232 226 220 210 201 200 195 185 181 189 196 194 168 166 166 166 174 182 181 186 194 196 204 209 186 182 190 189 184 177 166 160 155 152 167 213 96 91 72 72 72 71 81 84 84 83 78 76 77 81 86 91 95 96 93 87 85 85
222 231 225 208 208 220 231 218 221 239 213 199 204 200 222 223 216 216 210 220 225 217 218 224 220 214 219 226 226 221 213 201 201 204 193 182 188 196 207 200 175 170 172 176 181 186 192 194 196 208 216 202 179 185 195 189 180 177 176 174 171 168 182 215 192 87 70 67 71 79 85 89 88 85 83 80 83 87 91 97 102 101 97 93 89
219 243 253 236 222 223 235 225 221 235 231 217 214 209 221 228 221 218 207 213 235 229 217 229 229 218 212 217 223 216 210 208 205 205 202 190 187 197 214 216 196 180 176 178 180 188 197 194 198 208 209 208 201 196 202 194 182 181 187 191 188 175 170 204 229 223 86 62 75 82 84 90 91 90 90 87 87 89 95 98 100 103 103 101 95
215 234 240 241 238 233 234 230 225 227 226 223 225 222 223 232 224 224 222 199 227 230 217 230 233 230 219 208 214 218 209 209 212 208 207 203 192 198 211 214 211 201 187 180 181 189 193 196 206 207 204 210 216 220 217 202 194 184 187 208 204 183 169 191 226 248 227 64 63 81 84 88 92 95 95 96 97 93 97 102 103 101 104 111 105
217 229 233 236 237 241 239 235 235 228 225 226 229 226 221 229 222 223 232 195 200 209 213 227 227 235 237 216 206 215 213 207 212 214 210 209 204 202 206 208 212 213 206 193 188 190 188 191 204 205 203 212 216 221 221 207 203 191 188 208 209 193 183 186 214 249 244 253 329 82 89 85 88 97 102 106 108 107 106 106 109 105 106 116 118
213 225 233 235 236 246 245 243 244 232 231 232 232 233 227 232 230 219 216 207 211 215 217 224 222 225 241 243 221 210 215 213 209 211 212 214 215 212 206 203 201 204 211 208 200 196 191 189 195 198 201 213 215 214 219 212 205 195 192 202 207 202 196 187 203 228 235 259 256 231 112 90 92 96 105 114 119 126 131 127 124 119 115 119 124
221 228 233 236 239 243 240 241 246 234 236 239 235 235 231 234 239 233 208 202 218 221 215 219 226 223 227 247 247 227 220 222 219 213 213 216 218 220 217 212 201 194 198 206 210 208 202 198 196 192 195 209 215 213 216 214 213 202 188 198 208 207 203 196 199 210 216 249 243 222 234 194 120 101 103 115 127 138 148 157 156 146 136 129 125
226 233 237 243 245 245 243 242 243 235 234 238 242 237 228 226 234 238 220 209 214 213 209 216 228 228 224 232 245 251 238 231 232 225 220 219 218 218 219 222 216 202 195 201 211 215 211 207 205 199 196 204 211 213 213 210 216 213 199 205 209 205 206 203 199 203 214 233 231 212 224 227 183 129 113 115 130 145 157 169 177 173 160 151 139
226 238 246 251 250 252 256 253 248 241 232 229 238 238 228 224 229 230 227 223 220 211 206 216 222 222 227 227 229 240 243 240 240 237 233 227 224 223 219 218 219 214 205 202 208 215 216 212 211 211 207 207 210 212 213 210 213 214 212 219 222 226 217 209 205 202 212 222 221 214 213 214 214 213 203 177 146 155 165 174 181 185 181 173 161
239 247 255 259 257 257 259 259 253 243 241 238 233 234 230 228 230 230 232 233 229 220 206 211 220 216 224 239 236 228 233 243 247 247 243 237 232 228 227 223 217 214 211 212 213 213 214 214 215 219 218 218 216 217 218 212 212 214 214 216 224 237 228 213 211 206 209 218 221 220 215 218 233 240 226 221 209 181 178 181 184 191 193 190 186
268 270 266 271 275 269 265 266 257 244 246 242 230 234 236 235 234 233 242 243 239 233 206 203 220 219 224 246 250 243 236 239 243 246 245 245 244 233 231 229 221 218 215 215 221 215 212 212 214 219 223 225 222 223 225 217 211 211 214 216 220 231 241 234 219 213 214 218 223 223 220 229 246 255 241 229 223 214 198 193 191 196 198 198 196
312 296 283 287 290 285 291 285 266 248 236 235 234 239 233 235 240 238 242 246 250 249 210 196 221 231 249 254 259 269 269 263 259 257 252 249 248 240 235 232 224 222 222 220 223 221 215 212 212 213 219 229 229 227 229 226 219 210 209 215 216 226 246 257 231 222 225 224 225 226 226 236 247 255 254 242 230 225 215 208 201 202 203 201 201
326 321 313 298 295 295 308 314 294 250 220 222 235 240 228 233 248 245 242 242 252 258 236 202 218 226 245 257 263 271 277 282 285 282 271 255 242 238 239 241 235 227 225 226 226 227 223 217 217 215 216 227 231 230 232 232 230 223 211 211 213 218 238 255 240 225 232 233 232 231 231 238 246 249 255 253 242 232 224 217 211 210 209 206 204
335 344 320 294 297 299 318 339 345 31 183 189 209 238 231 235 250 244 243 245 245 252 251 235 232 230 222 248 269 272 275 279 278 276 274 268 255 244 239 240 244 239 232 230 229 230 230 225 222 223 223 226 227 225 229 233 234 235 224 214 211 210 219 236 239 237 243 246 242 240 235 237 245 248 251 255 250 241 231 224 219 216 215 214 211
14 3 330 344 338 317 336 352 3 41 50 70 127 162 184 223 244 233 234 244 244 247 247 237 229 228 210 225 257 287 284 278 273 268 264 264 263 264 264 249 241 241 239 237 237 233 234 234 229 226 228 230 228 221 223 231 236 238 234 225 219 215 214 216 223 236 248 251 249 248 244 242 247 250 250 254 252 243 230 223 223 222 219 220 217
65 57 50 37 13 349 350 356 1 16 23 41 72 69 79 102 225 219 221 240 246 246 245 238 228 223 239 238 166 163 260 275 275 272 267 261 255 271 295 283 260 257 248 238 240 238 236 242 241 236 235 235 235 229 224 229 236 238 238 235 229 226 224 219 218 223 237 250 252 248 249 251 252 251 249 251 250 243 230 219 219 222 223 223 220
66 61 64 59 33 13 358 358 4 3 5 18 43 44 48 56 53 69 132 234 253 234 221 225 222 223 230 237 165 219 251 32 49 283 288 282 260 265 294 290 278 292 284 256 251 253 249 250 249 247 244 241 241 241 238 236 236 237 240 244 242 236 233 231 227 222 225 239 248 248 251 256 256 253 250 248 246 242 234 222 216 218 221 223 224
71 67 68 62 48 38 15 6 16 17 12 23 34 32 32 28 18 39 90 116 10 123 149 155 208 223 236 262 272 199 119 57 114 301 286 276 264 260 282 283 275 295 312 308 302 291 281 270 260 258 254 249 247 245 246 245 242 236 236 243 247 247 242 238 235 231 227 230 238 245 250 256 257 252 250 248 244 239 231 223 218 217 217 220 225
79 76 73 63 55 48 33 22 32 38 32 41 45 39 41 34 18 17 38 46 34 86 116 127 196 209 269 307 318 131 122 87 349 350 318 275 285 278 276 274 274 277 278 298 323 314 300 287 269 270 267 260 256 252 250 251 250 244 238 241 246 250 251 247 240 236 234 230 231 238 244 250 253 250 248 246 244 240 231 225 220 219 219 217 220
93 90 87 79 72 65 54 44 39 42 50 57 52 48 55 52 43 34 28 28 22 41 84 63 36 54 73 24 11 43 114 43 30 13 354 331 335 328 295 288 288 275 262 268 287 286 282 280 273 273 272 269 265 261 260 258 257 250 243 245 246 248 250 252 251 246 240 235 231 233 237 240 243 246 247 246 243 241 237 231 222 220 221 217 217
106 100 101 96 92 83 66 52 38 33 42 55 57 54 56 53 52 51 47 48 38 25 27 34 35 31 21 357 8 53 151 127 71 31 158 240 301 344 329 323 308 284 275 273 262 252 256 260 264 268 273 274 267 264 265 263 266 262 254 254 253 253 254 253 254 253 248 241 234 233 233 233 235 239 244 246 245 243 241 236 228 224 224 220 218
121 115 114 109 103 91 75 60 43 37 42 53 57 56 58 56 55 56 54 56 55 46 37 39 42 29 11 355 343 339 211 181 190 213 195 208 237 250 237 232 268 284 288 287 276 265 259 257 260 265 271 272 269 269 267 262 267 266 258 263 264 258 258 256 253 251 247 242 236 233 232 232 234 235 237 243 244 241 240 238 232 227 225 222 220
138 134 128 122 115 101 87 72 57 47 47 50 52 56 61 61 59 59 58 57 57 56 51 46 43 40 26 14 15 13 351 328 324 345 326 270 275 261 235 219 211 244 270 276 280 281 274 267 265 267 267 265 265 268 265 260 264 264 256 258 263 256 255 259 258 251 246 241 237 233 232 231 232 232 233 238 240 235 233 233 228 224 224 223 221
156 154 149 142 132 120 106 89 73 57 49 48 51 57 61 62 62 61 60 59 57 54 55 47 41 43 39 27 27 34 18 3 4 351 326 319 315 301 289 279 256 255 254 239 244 257 260 260 261 259 257 256 261 261 261 261 262 265 259 253 262 265 263 265 263 258 250 243 238 233 231 230 230 231 231 234 237 235 232 230 226 223 223 223 222
171 171 167 164 156 145 137 116 93 77 67 61 61 63 66 67 66 65 63 62 57 57 56 47 39 39 41 37 30 35 47 30 7 346 316 308 302 293 299 305 302 296 282 248 239 240 234 236 245 248 246 251 261 259 256 260 257 258 257 250 261 271 270 268 264 260 256 249 244 237 231 229 229 231 231 232 236 237 238 235 232 230 225 225 226
181 181 177 176 175 167 160 145 129 119 103 92 84 79 74 76 74 69 66 65 61 60 58 52 44 37 32 34 36 34 35 27 4 344 336 319 312 318 318 309 300 291 285 273 263 254 235 227 232 241 240 242 256 259 250 251 255 263 269 266 270 275 276 275 267 261 258 255 253 247 239 233 229 228 229 230 231 236 241 240 236 236 234 230 230
186 185 182 183 184 180 176 168 161 156 144 133 120 105 93 87 85 79 72 68 65 62 59 55 49 41 35 29 32 36 25 14 7 353 352 353 337 333 329 317 303 291 288 285 279 273 261 247 238 244 244 240 248 253 245 242 253 267 280 287 283 278 279 280 272 266 262 258 257 253 248 242 236 232 230 230 228 230 236 240 238 238 239 237 235
189 186 183 187 189 187 187 183 177 175 169 166 165 146 141 129 115 111 103 90 83 79 72 67 54 44 37 22 21 39 24 5 6 4 358 348 331 322 315 315 316 312 310 310 305 298 297 303 285 263 263 266 261 259 259 259 265 274 286 293 286 278 278 277 271 267 265 261 258 253 249 246 242 238 235 234 232 229 230 235 238 240 240 240 239
191 187 187 191 193 192 194 192 187 188 183 182 184 175 175 171 153 149 145 138 130 115 101 86 70 53 42 22 16 38 26 8 5 2 355 340 327 315 297 290 296 306 312 315 316 318 331 335 317 302 306 308 308 303 291 280 277 283 291 287 279 276 277 278 276 272 269 266 263 258 252 247 244 243 241 240 239 236 232 231 235 239 240 241 241
194 189 190 193 195 196 198 198 194 194 192 192 192 188 193 189 175 175 167 162 166 156 146 131 105 72 52 23 8 33 25 5 353 347 342 336 327 316 306 294 279 283 297 301 303 306 314 319 310 311 322 322 319 312 300 284 279 285 290 283 279 277 277 279 279 276 272 269 266 263 261 256 251 247 244 243 242 240 237 234 234 236 238 241 242
197 193 193 195 196 198 201 202 200 198 197 197 196 193 200 198 192 195 186 184 191 177 169 168 160 163 133 39 350 20 11 343 329 323 321 320 319 314 310 304 292 286 287 285 286 292 297 300 301 307 315 315 311 304 296 287 282 284 285 280 277 274 273 275 275 273 272 269 266 263 263 262 258 251 245 243 242 241 240 238 236 235 235 238 240
203 197 196 198 198 199 202 204 202 202 201 200 198 198 202 201 203 205 196 199 208 196 188 186 182 195 195 201 242 276 334 331 321 311 306 301 300 301 301 298 292 286 281 277 278 284 287 287 290 294 299 300 298 295 291 287 284 284 284 280 279 276 274 275 274 273 271 267 261 259 262 262 258 254 249 245 243 241 239 239 238 238 236 236 237
213 207 203 204 203 202 203 205 205 204 204 203 200 199 201 201 204 206 196 201 215 209 200 201 203 204 208 228 233 223 261 304 308 302 298 290 283 282 281 282 281 278 277 277 280 286 288 287 286 288 290 290 289 287 286 285 284 284 283 281 280 278 275 275 273 272 269 264 257 255 259 259 256 254 252 250 249 246 243 240 239 239 239 238 237
221 217 214 212 209 207 207 208 208 208 207 205 201 200 202 202 201 201 198 203 213 210 205 211 211 203 208 239 245 232 255 281 289 292 297 294 288 284 281 282 284 283 280 281 285 288 289 291 291 290 288 285 282 281 281 282 282 282 282 282 282 279 276 274 274 273 272 268 258 252 253 255 255 255 255 253 252 250 248 245 242 240 240 241 240
226 223 222 222 218 214 213 212 211 211 209 207 203 201 203 203 201 201 201 205 210 207 206 213 214 205 205 221 231 235 250 266 276 284 290 288 287 290 290 287 285 283 282 280 280 282 286 289 289 289 290 288 284 283 283 282 281 279 278 279 280 281 280 277 276 274 274 272 266 260 259 260 260 261 261 260 258 254 251 248 246 244 242 242 242
229 225 225 229 226 221 220 219 216 214 212 208 204 204 205 205 205 204 204 205 207 205 206 211 211 206 207 217 228 233 241 259 272 279 284 284 287 292 293 291 287 284 281 276 273 275 280 284 285 285 288 288 284 283 284 284 282 279 278 278 278 280 281 281 281 280 278 276 272 266 262 259 260 261 262 264 263 259 255 251 248 247 245 244 243
228 226 224 227 229 228 226 224 223 220 218 215 209 205 206 207 206 207 207 207 206 205 205 206 206 206 212 221 228 234 245 261 271 278 285 290 294 294 293 293 292 292 289 283 278 276 277 280 283 285 285 284 282 281 281 282 282 281 280 279 278 279 280 280 281 281 278 276 274 271 268 266 266 265 265 265 264 264 261 256 251 249 247 246 245
232 230 227 226 230 230 227 226 229 227 224 224 218 211 208 208 207 207 208 207 205 205 205 203 203 205 209 217 226 236 243 254 265 277 286 290 291 291 292 292 292 293 290 286 283 279 276 277 279 282 281 281 281 280 278 277 278 280 281 281 280 278 277 276 276 276 275 273 273 272 271 269 268 266 266 265 264 263 262 258 253 250 249 248 247
234 233 232 229 230 230 227 227 229 226 225 226 223 217 212 209 208 207 206 206 205 204 203 201 202 204 206 213 223 230 238 252 262 269 281 290 291 290 289 288 289 290 288 286 283 280 278 277 278 280 279 279 278 278 279 277 275 276 278 279 279 277 274 274 276 278 280 279 278 274 270 268 265 263 263 261 260 260 260 259 256 253 250 249 248
236 234 233 231 228 228 229 231 230 227 224 222 218 219 218 212 207 206 204 201 201 202 201 201 202 203 206 214 222 227 236 241 240 251 276 287 288 288 288 288 288 287 286 285 285 282 280 279 279 279 280 279 278 277 278 276 273 274 275 277 281 284 282 280 279 280 280 280 278 275 272 270 267 265 261 259 258 258 260 260 259 258 256 253 250
245 242 237 232 230 230 232 236 234 227 219 216 219 225 225 214 203 200 199 197 198 199 198 201 204 205 210 218 221 221 228 233 242 261 278 281 276 274 277 281 283 283 282 281 281 281 281 281 281 282 281 280 279 279 278 275 274 278 282 282 283 284 283 280 278 275 274 274 274 274 271 268 266 264 261 259 259 260 261 261 259 259 258 255 252
242 243 239 236 235 235 235 237 236 227 219 222 228 229 222 210 198 194 194 195 197 197 196 200 202 205 214 223 227 232 243 255 266 278 284 281 275 272 272 273 274 276 279 280 279 279 280 280 281 282 282 280 279 280 280 280 279 280 280 279 279 280 281 279 278 275 271 270 272 272 270 267 266 265 262 260 260 261 260 260 260 260 259 256 253
236 237 236 237 239 239 239 240 237 227 219 222 231 229 215 202 193 191 191 190 192 194 194 197 202 210 220 228 236 246 258 270 279 288 291 286 282 280 279 277 272 269 270 272 273 276 278 279 278 279 279 278 279 280 281 282 280 278 276 274 274 276 277 276 279 279 276 275 278 280 277 274 272 271 269 265 263 261 256 254 257 260 258 256 254
239 238 234 234 237 241 243 238 229 224 220 223 230 226 212 202 196 190 187 185 186 190 193 198 206 215 224 233 240 250 260 264 269 278 283 281 280 281 281 281 278 273 269 267 266 267 269 273 276 275 274 277 281 281 282 285 286 284 282 278 276 276 276 276 277 278 279 282 284 282 280 277 276 274 272 268 266 265 261 257 259 257 251 249 253
242 240 236 234 234 238 240 231 221 226 229 228 226 218 208 203 197 186 182 185 187 190 195 200 208 218 229 241 250 256 262 264 267 270 271 275 280 283 283 281 277 274 272 267 263 261 261 264 269 270 271 275 279 279 282 291 297 294 288 282 279 278 275 273 273 275 278 283 284 282 279 276 275 273 271 268 266 266 264 263 263 259 251 249 254
247 242 239 237 236 237 238 232 226 228 228 223 219 213 206 202 196 189 185 184 183 188 197 201 212 224 234 247 256 261 266 268 269 270 271 278 284 285 285 279 273 273 273 269 265 261 258 257 258 263 268 270 273 275 279 287 293 292 288 287 287 286 284 283 280 278 277 278 281 283 280 275 273 272 269 268 266 264 262 261 261 258 256 255 256
251 248 243 240 239 239 240 236 232 227 220 216 213 209 207 205 199 192 179 173 180 194 206 212 223 232 240 250 258 263 268 270 271 269 270 276 281 284 285 281 278 277 274 270 265 260 258 257 257 260 265 267 268 270 273 277 282 284 287 292 295 295 293 289 284 279 277 272 269 270 272 271 269 269 269 269 268 266 263 261 260 257 253 250 248
255 252 247 243 240 238 239 238 230 216 208 207 205 204 205 203 197 188 172 172 191 211 218 224 234 240 247 252 256 261 266 270 274 274 274 276 280 284 285 283 282 280 276 273 269 263 260 260 259 260 264 266 266 266 267 270 275 281 288 292 291 290 288 282 276 275 276 271 260 257 264 269 267 267 270 271 269 268 265 264 263 255 246 242 239
256 253 250 247 242 239 241 236 218 200 193 193 195 198 199 196 189 181 178 188 206 222 224 232 244 249 253 252 252 260 267 273 278 280 280 281 282 284 284 283 284 282 280 278 275 272 269 267 265 264 265 267 269 271 273 273 273 275 280 282 280 278 277 274 271 272 273 270 262 256 261 266 266 266 270 270 268 266 264 263 263 249 235 235 235
259 257 254 249 245 245 243 225 201 190 182 181 189 192 189 184 177 172 189 204 215 228 231 242 253 257 261 259 257 260 264 270 275 277 279 281 283 284 283 284 285 284 283 284 283 281 279 276 275 274 272 271 272 275 278 278 275 272 270 267 266 266 266 267 270 272 271 268 264 260 262 266 265 263 266 269 267 264 259 257 257 245 230 228 231
260 257 257 253 244 235 212 189 186 186 176 173 179 179 173 171 167 162 180 205 218 241 254 263 268 268 271 274 274 272 270 269 269 270 274 276 277 279 280 283 286 285 285 287 286 286 287 285 283 282 279 277 275 274 275 276 276 272 265 262 260 257 258 261 265 269 270 266 261 257 259 263 264 262 263 267 269 266 259 252 247 238 222 213 222